星链-34577 (STARLINK-34577)

导读

STARLINK-34577是由美国于2025年6月28日发射的Starlink星链系列卫星,该系列卫星是美国SpaceX打造的低轨卫星互联网星座项目,旨在为全球提供高速、低延迟的宽带互联网服务,这颗卫星的入轨进一步扩充了星链星座的卫星规模,提升星座网络覆盖能力与服务稳定性。

Basic Information
目录编号:
64719
目录名称:
STARLINK-34577
国际标识:
2025-142Z
轨道中心:
EARTH
卫星名称:
星链-34577
卫星全名:
星链-34577 (STARLINK-34577)
卫星状态:
在轨 (已飞行433 天)
发射日期:
2025-06-28 UTC
国别 :
美国 (US)
星等 :
--
Orbit Information
数据来源 国际轨道数据
星历时间: 2026-09-04T12:00:02+0800
7小时前
查看轨道信息
半长轴: 6855.2km
偏心率: 0.0003438
轨道倾角: 70.000°
近地点辐角 263.489°
升交点赤经 223.989°
平近点角 170.276°
近地点: 474.706km
远地点: 479.42km
周期: 94.143分钟
每日圈数: 15.295814
Detailed Information
固有亮度:
5
最大亮度:
2.5
卫星平台:
Starlink V1.0
覆盖范围:
全球
运营商:
太空探索技术公司
运营商所在国:
美国
制造商(研发单位):
太空探索技术公司
制造商所在国:
美国
使用方式:
暂无
Satellite Introduction
Starlink 计划是 SpaceX 推出的全球卫星互联网项目,通过发射低轨道卫星,为全球尤其是偏远地区提供高速、低延迟的互联网服务。自 2019 年起,Starlink 已部署数千颗卫星,旨在缩小全球数字鸿沟,推动互联网普及。该项目还为军事、航空等行业提供通信支持,带来广泛经济效益。
2D Orbit Map
3D Orbit Map
Orbit Altitude Analysis Chart
Orbit Inclination Analysis Chart
Orbit Comprehensive Analysis Chart
View Comprehensive Chart
Conjunction Data List
Event ID Objects TCA Miss Dist (km) Collision Risk Probability Collision Risk Index (CRI) Action
CDM_260904-132806-471906-726221
OBJECT Q (67262)
2026-09-04T
13:28:13+0000
2.055 km
极远距离
2.309271E-6 低风险 0.42
CDM_260905-080406-471906-697921
2026-09-05T
08:04:00+0000
2.497 km
极远距离
1.53032E-6 低风险 0.39
CDM_260903-041706-471906-680721
2026-09-03T
04:17:25+0000
2.074 km
极远距离
1.362899E-6 低风险 0.38
CDM_260904-223105-745706-471921
2026-09-04T
22:31:12+0000
2.846 km
极远距离
1.312279E-6 低风险 0.37
CDM_260905-173205-599806-471921
2026-09-05T
17:32:13+0000
2.576 km
极远距离
1.310735E-6 低风险 0.37
CDM_260906-094005-668806-471921
2026-09-06T
09:40:08+0000
2.826 km
极远距离
1.22713E-6 低风险 0.37
CDM_260905-083005-655006-471921
2026-09-05T
08:30:44+0000
2.668 km
极远距离
1.081214E-6 低风险 0.36
CDM_260905-141606-306506-471921
2026-09-05T
14:16:02+0000
2.944 km
极远距离
6.387184E-7 极低风险 0.31